Regional Weather Roundup
Issued by NWS

Home | Current Version | Previous Version | Text Only | Print | Product List | Glossary On
Versions: 1 2 3 4 5 6 7 8 9 10 11 12 13 14 15 16 17 18 19 20 21 22 23 24 25 26 27 28 29 30 31 32 33 34 35 36 37 38 39 40 41 42 43 44 45 46 47 48 49 50
000
ASUS43 KBIS 261131
RWRND
NORTH DAKOTA REGIONAL WEATHER ROUNDUP
NATIONAL WEATHER SERVICE EASTERN NORTH DAKOTA/GRAND FORKS ND
600 AM CDT FRI MAY 26 2017

  NOTE: "FAIR" INDICATES FEW OR NO CLOUDS BELOW 12,000 FEET WITH NO
  SIGNIFICANT WEATHER AND/OR OBSTRUCTIONS TO VISIBILITY.

NDZ001>003-009>011-017-261200-
...NORTHWEST NORTH DAKOTA...

CITY           SKY/WX    TMP DP  RH WIND       PRES   REMARKS
WILLISTON      CLOUDY    51  41  68 W12       29.70R
MINOT          FAIR      50  44  80 SW13      29.62R
MINOT AFB      CLOUDY    50  45  81 W18       29.60R
$$

NDZ018>021-031>035-040>046-261200-
...SOUTHWEST NORTH DAKOTA...

CITY           SKY/WX    TMP DP  RH WIND       PRES   REMARKS
BISMARCK       FAIR      50  42  74 W12       29.72R
DICKINSON      CLOUDY    47  37  68 W23G29    29.73R
GARRISON         N/A     45  40  82 W13       29.65R
HETTINGER      FAIR      43  36  76 W15       29.80R
$$

NDZ004>008-012>016-024-026-027-054-261200-
...NORTHEAST NORTH DAKOTA...

CITY           SKY/WX    TMP DP  RH WIND       PRES   REMARKS
GRAND FORKS    FAIR      50  46  86 W9        29.59R
GRAND FORKS AF FAIR      47  44  89 W8        29.60R
DEVILS LAKE    NOT AVBL
$$

NDZ022-023-025-028>030-036>039-047>053-261200-
...SOUTHEAST NORTH DAKOTA...

CITY           SKY/WX    TMP DP  RH WIND       PRES   REMARKS
JAMESTOWN      FAIR      48  44  86 W8        29.66R
FARGO          FAIR      49  45  86 SW5       29.63R
WAHPETON       FAIR      46  43  87 W6        29.67R
$$




USA.gov is the U.S. government's official web portal to all federal, state and local government web resources and services.